Ilyas Efendiyev — 9HES8 — position and weather

sailwx.info

Track history (hours):
 
Tides and Currents Weather Stations Pressure Air Temp Water Temp Dewpoint Dewpoint Depression Visibility Wind Speed Wind Dir Waves Ship Positions

Ilyas Efendiyev

Last reported at 2014-Oct-17 09:10 UTC. Time now 2014-Oct-20 11:24 UTC.
Position N 50°33' E 000°12'.

Length 140 m; draft 4.6 m.

Type: Cargo ship. MMSI: 215901000.

Date/timePositionNaut miles runAvg speedWind from/ knotsBaromVisibWave heightAir tempDewpointWater temp
2014-Oct-17 09:10N 50°33' E 000°12'5 8.5
2014-Oct-17 08:34N 50°35' E 000°20'8 8.2
2014-Oct-17 07:34N 50°36' E 000°33'8 7.7
2014-Oct-17 06:34N 50°40' E 000°43'25 7.8
2014-Oct-17 03:22N 50°57' E 001°13'7 8.5
2014-Oct-17 02:33N 51°01' E 001°21'9 9.3
2014-Oct-17 01:34N 51°07' E 001°33'9 9.5
2014-Oct-17 00:34N 51°13' E 001°44'9 9.1
2014-Oct-16 23:33N 51°22' E 001°50'8 8.2
2014-Oct-16 22:34N 51°29' E 001°54'8 8.3
2014-Oct-16 21:34N 51°36' E 001°46'8 7.6
2014-Oct-16 20:33N 51°44' E 001°44'7 7.1
2014-Oct-16 19:34N 51°51' E 001°40'6 6.5
2014-Oct-16 18:34N 51°55' E 001°33'8 8.4
2014-Oct-16 17:33N 51°56' E 001°20'7 7.0
2014-Oct-16 16:34N 52°01' E 001°12'2 1.9
2014-Oct-16 15:31N 52°02' E 001°10'0 0.0
2014-Oct-16 14:33N 52°02' E 001°10'0 0.0
2014-Oct-16 13:33N 52°02' E 001°10'0 0.0
2014-Oct-16 12:33N 52°02' E 001°10'0 0.0
2014-Oct-16 11:32N 52°02' E 001°10'0 0.0
2014-Oct-16 10:31N 52°02' E 001°10'0 0.0
2014-Oct-16 09:33N 52°02' E 001°10'0 0.0
2014-Oct-16 08:31N 52°02' E 001°10'0 0.0
2014-Oct-16 07:32N 52°02' E 001°10'0 0.0
2014-Oct-16 06:30N 52°02' E 001°10'0 0.0
2014-Oct-16 05:27N 52°02' E 001°10'0 0.0
2014-Oct-16 04:32N 52°02' E 001°10'0 0.0
2014-Oct-16 03:27N 52°02' E 001°10'0 0.0
2014-Oct-16 02:28N 52°02' E 001°10'0 0.0
2014-Oct-16 01:31N 52°02' E 001°10'0 0.0
2014-Oct-16 00:33N 52°02' E 001°10'0 0.0
2014-Oct-15 23:32N 52°02' E 001°10'0 0.0
2014-Oct-15 22:33N 52°02' E 001°10'0 0.0
2014-Oct-15 21:32N 52°02' E 001°10'0 0.0
2014-Oct-15 20:33N 52°02' E 001°10'0 0.0
2014-Oct-15 19:31N 52°02' E 001°10'0 0.0
2014-Oct-15 18:33N 52°02' E 001°10'0 0.0
2014-Oct-15 17:33N 52°02' E 001°10'0 0.0
2014-Oct-15 16:31N 52°02' E 001°10'0 0.0
2014-Oct-15 15:25N 52°02' E 001°10'0 0.0
2014-Oct-15 14:31N 52°02' E 001°10'0 0.0
2014-Oct-15 13:29N 52°02' E 001°10'0 0.0
2014-Oct-15 12:31N 52°02' E 001°10'0 0.0
2014-Oct-15 11:28N 52°02' E 001°10'0 0.0
2014-Oct-15 10:32N 52°02' E 001°10'0 0.0
2014-Oct-15 09:31N 52°02' E 001°10'0 0.0
2014-Oct-15 08:32N 52°02' E 001°10'0 0.0
2014-Oct-15 07:32N 52°02' E 001°10'0 0.0
2014-Oct-15 06:26N 52°02' E 001°10'0 0.0
2014-Oct-15 05:32N 52°02' E 001°10'0 0.0
2014-Oct-15 04:33N 52°02' E 001°10'0 0.0
2014-Oct-15 03:32N 52°02' E 001°10'0 0.0
2014-Oct-15 02:28N 52°02' E 001°10'0 0.0
2014-Oct-15 01:27N 52°02' E 001°10'0 0.0
2014-Oct-15 00:32N 52°02' E 001°10'0 0.0
2014-Oct-14 23:31N 52°02' E 001°10'0 0.0
2014-Oct-14 22:31N 52°02' E 001°10'0 0.0
2014-Oct-14 21:32N 52°02' E 001°10'0 0.0
2014-Oct-14 20:31N 52°02' E 001°10'0 0.0
2014-Oct-14 19:32N 52°02' E 001°10'0 0.0
2014-Oct-14 18:31N 52°02' E 001°10'0 0.0
2014-Oct-14 17:32N 52°02' E 001°10'0 0.0
2014-Oct-14 16:32N 52°02' E 001°10'0 0.0
2014-Oct-14 15:32N 52°02' E 001°10'0 0.0
2014-Oct-14 14:31N 52°02' E 001°10'0 0.0
2014-Oct-14 13:31N 52°02' E 001°10'0 0.0
2014-Oct-14 12:32N 52°02' E 001°10'0 0.0
2014-Oct-14 11:28N 52°02' E 001°10'0 0.0
2014-Oct-14 10:30N 52°02' E 001°10'0 0.0
2014-Oct-14 09:31N 52°02' E 001°10'0 0.0
2014-Oct-14 08:31N 52°02' E 001°10'0 0.0
2014-Oct-14 07:33N 52°02' E 001°10'0 0.0
2014-Oct-14 06:31N 52°02' E 001°10'0 0.0
2014-Oct-14 05:28N 52°02' E 001°10'0 0.0
2014-Oct-14 04:26N 52°02' E 001°10'0 0.0
2014-Oct-14 03:32N 52°02' E 001°10'0 0.0
2014-Oct-14 02:32N 52°02' E 001°10'0 0.0
2014-Oct-14 01:29N 52°02' E 001°10'0 0.0
2014-Oct-14 00:32N 52°02' E 001°10'0 0.0
2014-Oct-13 23:33N 52°02' E 001°10'0 0.0
2014-Oct-13 22:29N 52°02' E 001°10'0 0.0
2014-Oct-13 21:32N 52°02' E 001°10'0 0.0
2014-Oct-13 20:33N 52°02' E 001°10'0 0.0
2014-Oct-13 19:31N 52°02' E 001°10'0 0.0
2014-Oct-13 18:29N 52°02' E 001°10'0 0.0
2014-Oct-13 17:33N 52°02' E 001°10'0 0.0
2014-Oct-13 16:33N 52°02' E 001°10'0 0.0
2014-Oct-13 15:32N 52°02' E 001°10'0 0.0
2014-Oct-13 14:29N 52°02' E 001°10'0 0.0
2014-Oct-13 13:32N 52°02' E 001°10'0 0.0
2014-Oct-13 12:33N 52°02' E 001°10'0 0.0
2014-Oct-13 11:33N 52°02' E 001°10'0 0.0
2014-Oct-13 10:32N 52°02' E 001°10'0 0.0
2014-Oct-13 09:32N 52°02' E 001°10'0 0.0
2014-Oct-13 08:33N 52°02' E 001°10'0 0.0
2014-Oct-13 07:33N 52°02' E 001°10'0 0.0
2014-Oct-13 06:31N 52°02' E 001°10'0 0.0
2014-Oct-13 05:32N 52°02' E 001°10'0 0.0
2014-Oct-13 04:32N 52°02' E 001°10'0 0.0
2014-Oct-13 03:33N 52°02' E 001°10'0 0.0
2014-Oct-13 02:33N 52°02' E 001°10'0 0.0
2014-Oct-13 01:30N 52°02' E 001°10'0 0.0
2014-Oct-13 00:31N 52°02' E 001°10'0 0.0
2014-Oct-12 23:31N 52°02' E 001°10'0 0.0
2014-Oct-12 22:31N 52°02' E 001°10'0 0.0
2014-Oct-12 21:32N 52°02' E 001°10'0 0.0
2014-Oct-12 20:32N 52°02' E 001°10'0 0.0
2014-Oct-12 19:28N 52°02' E 001°10'0 0.0
2014-Oct-12 18:33N 52°02' E 001°10'0 0.0
2014-Oct-12 17:33N 52°02' E 001°10'0 0.0
2014-Oct-12 16:28N 52°02' E 001°10'0 0.0
2014-Oct-12 15:33N 52°02' E 001°10'0 0.0
2014-Oct-12 14:31N 52°02' E 001°10'0 0.0
2014-Oct-12 13:25N 52°02' E 001°10'0 0.0
2014-Oct-12 12:32N 52°02' E 001°10'0 0.0
2014-Oct-12 11:32N 52°02' E 001°10'0 0.0
2014-Oct-12 10:32N 52°02' E 001°10'0 0.0
2014-Oct-12 09:28N 52°02' E 001°10'0 0.0
2014-Oct-12 08:33N 52°02' E 001°10'0 0.0
2014-Oct-12 07:33N 52°02' E 001°10'0 0.0
2014-Oct-12 06:33N 52°02' E 001°10'0 0.0
2014-Oct-12 05:32N 52°02' E 001°10'0 0.0
2014-Oct-12 04:32N 52°02' E 001°10'0 0.0
2014-Oct-12 03:32N 52°02' E 001°10'0 0.0
2014-Oct-12 02:30N 52°02' E 001°10'0 0.0
2014-Oct-12 01:06N 52°02' E 001°10'0 0.0
2014-Oct-12 00:33N 52°02' E 001°10'0 0.0
2014-Oct-11 23:33N 52°02' E 001°10'0 0.0
2014-Oct-11 22:31N 52°02' E 001°10'0 0.0
2014-Oct-11 21:31N 52°02' E 001°10'0 0.0
2014-Oct-11 20:32N 52°02' E 001°10'0 0.0
2014-Oct-11 19:32N 52°02' E 001°10'0 0.0
2014-Oct-11 18:33N 52°02' E 001°10'0 0.0
2014-Oct-11 17:33N 52°02' E 001°10'0 0.0
2014-Oct-11 16:33N 52°02' E 001°10'0 0.0
2014-Oct-11 15:33N 52°02' E 001°10'0 0.0
2014-Oct-11 14:33N 52°02' E 001°10'0 0.0
2014-Oct-11 13:03N 52°02' E 001°10'0 0.0
2014-Oct-11 12:33N 52°02' E 001°10'0 0.0
2014-Oct-11 11:33N 52°02' E 001°10'0 0.0
2014-Oct-11 10:28N 52°02' E 001°10'0 0.0
2014-Oct-11 09:32N 52°02' E 001°10'0 0.0
2014-Oct-11 08:32N 52°02' E 001°10'0 0.0
2014-Oct-11 07:29N 52°02' E 001°10'0 0.0
2014-Oct-11 06:32N 52°02' E 001°10'0 0.0
2014-Oct-11 05:33N 52°02' E 001°10'0 0.0
2014-Oct-11 04:32N 52°02' E 001°10'0 0.0
2014-Oct-11 03:32N 52°02' E 001°10'0 0.0
2014-Oct-11 02:28N 52°02' E 001°10'0 0.0
2014-Oct-11 01:32N 52°02' E 001°10'0 0.0
2014-Oct-11 00:32N 52°02' E 001°10'0 0.0
2014-Oct-10 23:31N 52°02' E 001°10'0 0.0
2014-Oct-10 22:33N 52°02' E 001°10'2 2.0
2014-Oct-10 21:33N 52°00' E 001°12'6 6.1
2014-Oct-10 20:33N 51°56' E 001°19'6 5.7
2014-Oct-10 19:34N 51°57' E 001°28'2 1.7
2014-Oct-10 18:33N 51°57' E 001°25'0 0.0
2014-Oct-10 17:33N 51°57' E 001°25'0 0.0
2014-Oct-10 16:33N 51°57' E 001°25'0 0.0
2014-Oct-10 15:33N 51°57' E 001°25'0 0.0
2014-Oct-10 14:33N 51°57' E 001°25'0 0.0
2014-Oct-10 13:33N 51°57' E 001°25'0 0.0
2014-Oct-10 12:33N 51°57' E 001°25'0 0.1
2014-Oct-10 11:34N 51°57' E 001°25'2 1.8
2014-Oct-10 10:33N 51°56' E 001°27'7 6.7
2014-Oct-10 09:33N 51°52' E 001°35'9 8.9
2014-Oct-10 08:33N 51°50' E 001°50'8 8.4
2014-Oct-10 07:33N 51°53' E 002°03'86 4.9
2014-Oct-09 14:13N 52°31' E 004°08'4 5.4
2014-Oct-09 13:33N 52°29' E 004°13'7 6.8
2014-Oct-09 12:33N 52°28' E 004°24'7 7.1
2014-Oct-09 11:33N 52°28' E 004°36'5 5.2
2014-Oct-09 10:34N 52°26' E 004°44'5 4.8
2014-Oct-09 09:30N 52°24' E 004°52'0 0.0
2014-Oct-09 08:32N 52°24' E 004°52'0 0.0
2014-Oct-09 07:31N 52°24' E 004°52'0 0.0
2014-Oct-09 06:32N 52°24' E 004°52'0 0.0
2014-Oct-09 05:30N 52°24' E 004°52'0 0.0
2014-Oct-09 04:32N 52°24' E 004°52'0 0.0
2014-Oct-09 03:31N 52°24' E 004°52'0 0.0
2014-Oct-09 02:32N 52°24' E 004°52'0 0.0
2014-Oct-09 01:31N 52°24' E 004°52'0 0.0
2014-Oct-09 00:33N 52°24' E 004°52'0 0.0
2014-Oct-08 23:32N 52°24' E 004°52'0 0.0
2014-Oct-08 22:30N 52°24' E 004°52'0 0.0
2014-Oct-08 21:33N 52°24' E 004°52'0 0.0
2014-Oct-08 20:27N 52°24' E 004°52'0 0.0
2014-Oct-08 19:32N 52°24' E 004°52'0 0.0
2014-Oct-08 18:30N 52°24' E 004°52'0 0.0
2014-Oct-08 17:31N 52°24' E 004°52'0 0.0
2014-Oct-08 16:26N 52°24' E 004°52'0 0.0
2014-Oct-08 15:32N 52°24' E 004°52'0 0.0
2014-Oct-08 14:31N 52°24' E 004°52'0 0.0
2014-Oct-08 13:27N 52°24' E 004°52'0 0.0
2014-Oct-08 12:33N 52°24' E 004°52'4 4.5
2014-Oct-08 11:33N 52°26' E 004°45'6 5.7
2014-Oct-08 10:33N 52°28' E 004°36'6 5.9
2014-Oct-08 09:33N 52°28' E 004°27'7 7.4
2014-Oct-08 08:33N 52°29' E 004°15'8 0.7
2014-Oct-07 21:18N 52°27' E 004°02'0 0.0
2014-Oct-07 20:26N 52°27' E 004°02'0 0.1
2014-Oct-07 19:31N 52°27' E 004°02'0 0.1
2014-Oct-07 18:32N 52°27' E 004°02'0 0.0
2014-Oct-07 17:33N 52°27' E 004°02'0 0.1
2014-Oct-07 15:11N 52°27' E 004°02'2 2.5
2014-Oct-07 14:33N 52°28' E 004°04'2 2.2
2014-Oct-07 13:33N 52°29' E 004°07'  
Track history (hours):
 
Tides and Currents Weather Stations Pressure Air Temp Water Temp Dewpoint Dewpoint Depression Visibility Wind Speed Wind Dir Waves Ship Positions

Ilyas Efendiyev

Last reported at 2014-Oct-17 09:10 UTC. Time now 2014-Oct-20 11:24 UTC.
Position N 50°33' E 000°12'.

Length 140 m; draft 4.6 m.

Type: Cargo ship. MMSI: 215901000.

Date/timePositionNaut miles runAvg speedWind from/ knotsBaromVisibWave heightAir tempDewpointWater temp
2014-Oct-17 09:10N 50°33' E 000°12'5 8.5
2014-Oct-17 08:34N 50°35' E 000°20'8 8.2
2014-Oct-17 07:34N 50°36' E 000°33'8 7.7
2014-Oct-17 06:34N 50°40' E 000°43'25 7.8
2014-Oct-17 03:22N 50°57' E 001°13'7 8.5
2014-Oct-17 02:33N 51°01' E 001°21'9 9.3
2014-Oct-17 01:34N 51°07' E 001°33'9 9.5
2014-Oct-17 00:34N 51°13' E 001°44'9 9.1
2014-Oct-16 23:33N 51°22' E 001°50'8 8.2
2014-Oct-16 22:34N 51°29' E 001°54'8 8.3
2014-Oct-16 21:34N 51°36' E 001°46'8 7.6
2014-Oct-16 20:33N 51°44' E 001°44'7 7.1
2014-Oct-16 19:34N 51°51' E 001°40'6 6.5
2014-Oct-16 18:34N 51°55' E 001°33'8 8.4
2014-Oct-16 17:33N 51°56' E 001°20'7 7.0
2014-Oct-16 16:34N 52°01' E 001°12'2 1.9
2014-Oct-16 15:31N 52°02' E 001°10'0 0.0
2014-Oct-16 14:33N 52°02' E 001°10'0 0.0
2014-Oct-16 13:33N 52°02' E 001°10'0 0.0
2014-Oct-16 12:33N 52°02' E 001°10'0 0.0
2014-Oct-16 11:32N 52°02' E 001°10'0 0.0
2014-Oct-16 10:31N 52°02' E 001°10'0 0.0
2014-Oct-16 09:33N 52°02' E 001°10'0 0.0
2014-Oct-16 08:31N 52°02' E 001°10'0 0.0
2014-Oct-16 07:32N 52°02' E 001°10'0 0.0
2014-Oct-16 06:30N 52°02' E 001°10'0 0.0
2014-Oct-16 05:27N 52°02' E 001°10'0 0.0
2014-Oct-16 04:32N 52°02' E 001°10'0 0.0
2014-Oct-16 03:27N 52°02' E 001°10'0 0.0
2014-Oct-16 02:28N 52°02' E 001°10'0 0.0
2014-Oct-16 01:31N 52°02' E 001°10'0 0.0
2014-Oct-16 00:33N 52°02' E 001°10'0 0.0
2014-Oct-15 23:32N 52°02' E 001°10'0 0.0
2014-Oct-15 22:33N 52°02' E 001°10'0 0.0
2014-Oct-15 21:32N 52°02' E 001°10'0 0.0
2014-Oct-15 20:33N 52°02' E 001°10'0 0.0
2014-Oct-15 19:31N 52°02' E 001°10'0 0.0
2014-Oct-15 18:33N 52°02' E 001°10'0 0.0
2014-Oct-15 17:33N 52°02' E 001°10'0 0.0
2014-Oct-15 16:31N 52°02' E 001°10'0 0.0
2014-Oct-15 15:25N 52°02' E 001°10'0 0.0
2014-Oct-15 14:31N 52°02' E 001°10'0 0.0
2014-Oct-15 13:29N 52°02' E 001°10'0 0.0
2014-Oct-15 12:31N 52°02' E 001°10'0 0.0
2014-Oct-15 11:28N 52°02' E 001°10'0 0.0
2014-Oct-15 10:32N 52°02' E 001°10'0 0.0
2014-Oct-15 09:31N 52°02' E 001°10'0 0.0
2014-Oct-15 08:32N 52°02' E 001°10'0 0.0
2014-Oct-15 07:32N 52°02' E 001°10'0 0.0
2014-Oct-15 06:26N 52°02' E 001°10'0 0.0
2014-Oct-15 05:32N 52°02' E 001°10'0 0.0
2014-Oct-15 04:33N 52°02' E 001°10'0 0.0
2014-Oct-15 03:32N 52°02' E 001°10'0 0.0
2014-Oct-15 02:28N 52°02' E 001°10'0 0.0
2014-Oct-15 01:27N 52°02' E 001°10'0 0.0
2014-Oct-15 00:32N 52°02' E 001°10'0 0.0
2014-Oct-14 23:31N 52°02' E 001°10'0 0.0
2014-Oct-14 22:31N 52°02' E 001°10'0 0.0
2014-Oct-14 21:32N 52°02' E 001°10'0 0.0
2014-Oct-14 20:31N 52°02' E 001°10'0 0.0
2014-Oct-14 19:32N 52°02' E 001°10'0 0.0
2014-Oct-14 18:31N 52°02' E 001°10'0 0.0
2014-Oct-14 17:32N 52°02' E 001°10'0 0.0
2014-Oct-14 16:32N 52°02' E 001°10'0 0.0
2014-Oct-14 15:32N 52°02' E 001°10'0 0.0
2014-Oct-14 14:31N 52°02' E 001°10'0 0.0
2014-Oct-14 13:31N 52°02' E 001°10'0 0.0
2014-Oct-14 12:32N 52°02' E 001°10'0 0.0
2014-Oct-14 11:28N 52°02' E 001°10'0 0.0
2014-Oct-14 10:30N 52°02' E 001°10'0 0.0
2014-Oct-14 09:31N 52°02' E 001°10'0 0.0
2014-Oct-14 08:31N 52°02' E 001°10'0 0.0
2014-Oct-14 07:33N 52°02' E 001°10'0 0.0
2014-Oct-14 06:31N 52°02' E 001°10'0 0.0
2014-Oct-14 05:28N 52°02' E 001°10'0 0.0
2014-Oct-14 04:26N 52°02' E 001°10'0 0.0
2014-Oct-14 03:32N 52°02' E 001°10'0 0.0
2014-Oct-14 02:32N 52°02' E 001°10'0 0.0
2014-Oct-14 01:29N 52°02' E 001°10'0 0.0
2014-Oct-14 00:32N 52°02' E 001°10'0 0.0
2014-Oct-13 23:33N 52°02' E 001°10'0 0.0
2014-Oct-13 22:29N 52°02' E 001°10'0 0.0
2014-Oct-13 21:32N 52°02' E 001°10'0 0.0
2014-Oct-13 20:33N 52°02' E 001°10'0 0.0
2014-Oct-13 19:31N 52°02' E 001°10'0 0.0
2014-Oct-13 18:29N 52°02' E 001°10'0 0.0
2014-Oct-13 17:33N 52°02' E 001°10'0 0.0
2014-Oct-13 16:33N 52°02' E 001°10'0 0.0
2014-Oct-13 15:32N 52°02' E 001°10'0 0.0
2014-Oct-13 14:29N 52°02' E 001°10'0 0.0
2014-Oct-13 13:32N 52°02' E 001°10'0 0.0
2014-Oct-13 12:33N 52°02' E 001°10'0 0.0
2014-Oct-13 11:33N 52°02' E 001°10'0 0.0
2014-Oct-13 10:32N 52°02' E 001°10'0 0.0
2014-Oct-13 09:32N 52°02' E 001°10'0 0.0
2014-Oct-13 08:33N 52°02' E 001°10'0 0.0
2014-Oct-13 07:33N 52°02' E 001°10'0 0.0
2014-Oct-13 06:31N 52°02' E 001°10'0 0.0
2014-Oct-13 05:32N 52°02' E 001°10'0 0.0
2014-Oct-13 04:32N 52°02' E 001°10'0 0.0
2014-Oct-13 03:33N 52°02' E 001°10'0 0.0
2014-Oct-13 02:33N 52°02' E 001°10'0 0.0
2014-Oct-13 01:30N 52°02' E 001°10'0 0.0
2014-Oct-13 00:31N 52°02' E 001°10'0 0.0
2014-Oct-12 23:31N 52°02' E 001°10'0 0.0
2014-Oct-12 22:31N 52°02' E 001°10'0 0.0
2014-Oct-12 21:32N 52°02' E 001°10'0 0.0
2014-Oct-12 20:32N 52°02' E 001°10'0 0.0
2014-Oct-12 19:28N 52°02' E 001°10'0 0.0
2014-Oct-12 18:33N 52°02' E 001°10'0 0.0
2014-Oct-12 17:33N 52°02' E 001°10'0 0.0
2014-Oct-12 16:28N 52°02' E 001°10'0 0.0
2014-Oct-12 15:33N 52°02' E 001°10'0 0.0
2014-Oct-12 14:31N 52°02' E 001°10'0 0.0
2014-Oct-12 13:25N 52°02' E 001°10'0 0.0
2014-Oct-12 12:32N 52°02' E 001°10'0 0.0
2014-Oct-12 11:32N 52°02' E 001°10'0 0.0
2014-Oct-12 10:32N 52°02' E 001°10'0 0.0
2014-Oct-12 09:28N 52°02' E 001°10'0 0.0
2014-Oct-12 08:33N 52°02' E 001°10'0 0.0
2014-Oct-12 07:33N 52°02' E 001°10'0 0.0
2014-Oct-12 06:33N 52°02' E 001°10'0 0.0
2014-Oct-12 05:32N 52°02' E 001°10'0 0.0
2014-Oct-12 04:32N 52°02' E 001°10'0 0.0
2014-Oct-12 03:32N 52°02' E 001°10'0 0.0
2014-Oct-12 02:30N 52°02' E 001°10'0 0.0
2014-Oct-12 01:06N 52°02' E 001°10'0 0.0
2014-Oct-12 00:33N 52°02' E 001°10'0 0.0
2014-Oct-11 23:33N 52°02' E 001°10'0 0.0
2014-Oct-11 22:31N 52°02' E 001°10'0 0.0
2014-Oct-11 21:31N 52°02' E 001°10'0 0.0
2014-Oct-11 20:32N 52°02' E 001°10'0 0.0
2014-Oct-11 19:32N 52°02' E 001°10'0 0.0
2014-Oct-11 18:33N 52°02' E 001°10'0 0.0
2014-Oct-11 17:33N 52°02' E 001°10'0 0.0
2014-Oct-11 16:33N 52°02' E 001°10'0 0.0
2014-Oct-11 15:33N 52°02' E 001°10'0 0.0
2014-Oct-11 14:33N 52°02' E 001°10'0 0.0
2014-Oct-11 13:03N 52°02' E 001°10'0 0.0
2014-Oct-11 12:33N 52°02' E 001°10'0 0.0
2014-Oct-11 11:33N 52°02' E 001°10'0 0.0
2014-Oct-11 10:28N 52°02' E 001°10'0 0.0
2014-Oct-11 09:32N 52°02' E 001°10'0 0.0
2014-Oct-11 08:32N 52°02' E 001°10'0 0.0
2014-Oct-11 07:29N 52°02' E 001°10'0 0.0
2014-Oct-11 06:32N 52°02' E 001°10'0 0.0
2014-Oct-11 05:33N 52°02' E 001°10'0 0.0
2014-Oct-11 04:32N 52°02' E 001°10'0 0.0
2014-Oct-11 03:32N 52°02' E 001°10'0 0.0
2014-Oct-11 02:28N 52°02' E 001°10'0 0.0
2014-Oct-11 01:32N 52°02' E 001°10'0 0.0
2014-Oct-11 00:32N 52°02' E 001°10'0 0.0
2014-Oct-10 23:31N 52°02' E 001°10'0 0.0
2014-Oct-10 22:33N 52°02' E 001°10'2 2.0
2014-Oct-10 21:33N 52°00' E 001°12'6 6.1
2014-Oct-10 20:33N 51°56' E 001°19'6 5.7
2014-Oct-10 19:34N 51°57' E 001°28'2 1.7
2014-Oct-10 18:33N 51°57' E 001°25'0 0.0
2014-Oct-10 17:33N 51°57' E 001°25'0 0.0
2014-Oct-10 16:33N 51°57' E 001°25'0 0.0
2014-Oct-10 15:33N 51°57' E 001°25'0 0.0
2014-Oct-10 14:33N 51°57' E 001°25'0 0.0
2014-Oct-10 13:33N 51°57' E 001°25'0 0.0
2014-Oct-10 12:33N 51°57' E 001°25'0 0.1
2014-Oct-10 11:34N 51°57' E 001°25'2 1.8
2014-Oct-10 10:33N 51°56' E 001°27'7 6.7
2014-Oct-10 09:33N 51°52' E 001°35'9 8.9
2014-Oct-10 08:33N 51°50' E 001°50'8 8.4
2014-Oct-10 07:33N 51°53' E 002°03'86 4.9
2014-Oct-09 14:13N 52°31' E 004°08'4 5.4
2014-Oct-09 13:33N 52°29' E 004°13'7 6.8
2014-Oct-09 12:33N 52°28' E 004°24'7 7.1
2014-Oct-09 11:33N 52°28' E 004°36'5 5.2
2014-Oct-09 10:34N 52°26' E 004°44'5 4.8
2014-Oct-09 09:30N 52°24' E 004°52'0 0.0
2014-Oct-09 08:32N 52°24' E 004°52'0 0.0
2014-Oct-09 07:31N 52°24' E 004°52'0 0.0
2014-Oct-09 06:32N 52°24' E 004°52'0 0.0
2014-Oct-09 05:30N 52°24' E 004°52'0 0.0
2014-Oct-09 04:32N 52°24' E 004°52'0 0.0
2014-Oct-09 03:31N 52°24' E 004°52'0 0.0
2014-Oct-09 02:32N 52°24' E 004°52'0 0.0
2014-Oct-09 01:31N 52°24' E 004°52'0 0.0
2014-Oct-09 00:33N 52°24' E 004°52'0 0.0
2014-Oct-08 23:32N 52°24' E 004°52'0 0.0
2014-Oct-08 22:30N 52°24' E 004°52'0 0.0
2014-Oct-08 21:33N 52°24' E 004°52'0 0.0
2014-Oct-08 20:27N 52°24' E 004°52'0 0.0
2014-Oct-08 19:32N 52°24' E 004°52'0 0.0
2014-Oct-08 18:30N 52°24' E 004°52'0 0.0
2014-Oct-08 17:31N 52°24' E 004°52'0 0.0
2014-Oct-08 16:26N 52°24' E 004°52'0 0.0
2014-Oct-08 15:32N 52°24' E 004°52'0 0.0
2014-Oct-08 14:31N 52°24' E 004°52'0 0.0
2014-Oct-08 13:27N 52°24' E 004°52'0 0.0
2014-Oct-08 12:33N 52°24' E 004°52'4 4.5
2014-Oct-08 11:33N 52°26' E 004°45'6 5.7
2014-Oct-08 10:33N 52°28' E 004°36'6 5.9
2014-Oct-08 09:33N 52°28' E 004°27'7 7.4
2014-Oct-08 08:33N 52°29' E 004°15'8 0.7
2014-Oct-07 21:18N 52°27' E 004°02'0 0.0
2014-Oct-07 20:26N 52°27' E 004°02'0 0.1
2014-Oct-07 19:31N 52°27' E 004°02'0 0.1
2014-Oct-07 18:32N 52°27' E 004°02'0 0.0
2014-Oct-07 17:33N 52°27' E 004°02'0 0.1
2014-Oct-07 15:11N 52°27' E 004°02'2 2.5
2014-Oct-07 14:33N 52°28' E 004°04'2 2.2
2014-Oct-07 13:33N 52°29' E 004°07'  

Dump ship's entire track history